OYSTER BAY ROAD WA US WA DOT current weather conditions

sailwx.info

Wind from 058 at 1 knots gusting 5

Visibility: greater than 1.1 NM

Last reported at 2020-Jan-25 12:54 UTC.
Time now 2020-Jan-25 13:26 UTC

Location: N 47°05' W 123°02'.
View on Google Maps.

See reports from other nearby stations

  
Tides and Currents Weather Stations Pressure Air Temp Water Temp Dewpoint Dewpoint Depression Visibility Wind Speed Wind Dir Waves Ship Positions
date/time (UTC)wind fromknots sea level pressurealtimeterstation pressurevisibilityair tempwater tempwave heightnotes
2020-Jan-25 13:04 307 1 gusting 5 1.1
2020-Jan-25 12:54 058 1 gusting 5 1.1
2020-Jan-25 12:43 069 1 gusting 3 1.1
2020-Jan-25 12:33 1.1
2020-Jan-25 12:23 1.1
2020-Jan-25 12:15 1.1
2020-Jan-25 12:02 178 1 gusting 2 1.1
2020-Jan-25 11:54 003 1 gusting 1 1.1
2020-Jan-25 11:46 1.1
2020-Jan-25 11:33 1.1
2020-Jan-25 11:25 018 1 gusting 2 1.1
2020-Jan-25 11:14 033 1 gusting 2 1.1
2020-Jan-25 11:02 028 1 gusting 2 1.1
2020-Jan-25 10:52 013 1 gusting 2 1.1
2020-Jan-25 10:45 039 1 gusting 3 1.1
2020-Jan-25 10:34 043 2 gusting 2 1.1
2020-Jan-25 10:24 050 2 gusting 4 1.1
2020-Jan-25 10:13 045 3 gusting 3 1.1
2020-Jan-25 10:02 050 2 gusting 6 1.1
2020-Jan-25 09:52 044 4 gusting 6 1.1
2020-Jan-25 09:43 053 4 gusting 6 1.1
2020-Jan-25 09:33 054 3 gusting 5 1.1
2020-Jan-25 09:25 057 3 gusting 5 1.1
2020-Jan-25 09:12 059 2 gusting 4 1.1
2020-Jan-25 09:04 048 2 gusting 4 1.1
2020-Jan-25 08:54 047 2 gusting 4 1.1
2020-Jan-25 08:44 089 1 gusting 3 1.1
2020-Jan-25 08:34 068 2 gusting 3 1.1
2020-Jan-25 08:22 1.1
2020-Jan-25 08:14 219 1 gusting 2 1.1
2020-Jan-25 08:03 1.1
2020-Jan-25 07:52 1.1
2020-Jan-25 07:43 049 3 gusting 5 1.1
2020-Jan-25 07:32 058 1 gusting 5 1.1
2020-Jan-25 07:25 060 2 gusting 5 1.1
2020-Jan-25 07:15 058 3 gusting 7 1.1
2020-Jan-25 07:02 070 1 gusting 3 1.1
2020-Jan-25 06:53 070 1 gusting 2 1.1
2020-Jan-25 06:45 069 1 gusting 3 1.1
2020-Jan-25 06:35 1.1
2020-Jan-25 06:24 178 1 gusting 2 1.1
2020-Jan-25 06:13 043 1 gusting 2 1.1
2020-Jan-25 06:03 054 2 gusting 5 1.1
2020-Jan-25 05:56 070 1 gusting 4 1.1
2020-Jan-25 05:45 042 1 gusting 3 1.1
2020-Jan-25 05:32 058 1 gusting 3 1.1
2020-Jan-25 05:23 053 1 1.1
2020-Jan-25 05:13 1.1
2020-Jan-25 05:03 260 1 gusting 2 1.1
2020-Jan-25 04:53 1.1
2020-Jan-25 04:45 1.1
2020-Jan-25 04:36 080 1 1.1
2020-Jan-25 04:24 1.1
2020-Jan-25 04:14 038 0 1.1
2020-Jan-25 04:05 1.1
2020-Jan-25 03:54 1.1
2020-Jan-25 03:42 1.1
2020-Jan-25 03:34 112 1 gusting 1 1.1
2020-Jan-25 03:26 082 1 gusting 1 1.1
2020-Jan-25 03:13 127 1 gusting 2 1.1
2020-Jan-25 03:02 108 1 gusting 2 1.1
2020-Jan-25 02:52 136 1 gusting 2 1.1
2020-Jan-25 02:45 136 1 gusting 2 1.1
2020-Jan-25 02:34 111 1 gusting 3 1.1
2020-Jan-25 02:23 108 1 gusting 2 1.1
2020-Jan-25 02:16 130 1 gusting 2 1.1
2020-Jan-25 02:03 1.1
2020-Jan-25 01:54 076 1 gusting 2 1.1
2020-Jan-25 01:44 1.1
2020-Jan-25 01:35 130 1 gusting 2 1.1
2020-Jan-25 01:26 065 1 1.1
2020-Jan-25 01:06 1.1
2020-Jan-25 00:53 1.1
2020-Jan-25 00:43 1.1
2020-Jan-25 00:37 1.1
2020-Jan-25 00:23 126 0 gusting 3 1.1
2020-Jan-25 00:13 1.1
2020-Jan-25 00:05 184 1 gusting 2 1.1
2020-Jan-24 23:54 283 1 gusting 3 1.1
2020-Jan-24 23:46 268 1 gusting 3 1.1
2020-Jan-24 23:33 218 2 gusting 10 1.1 9.6
2020-Jan-24 23:25 1.1
2020-Jan-24 23:12 230 1 gusting 4 1.1 9.6
2020-Jan-24 23:04 1.1
2020-Jan-24 22:52 264 1 gusting 3 1.1
2020-Jan-24 22:47 255 2 gusting 6 1.1
2020-Jan-24 22:33 264 2 gusting 3 1.1
2020-Jan-24 22:23 291 0 gusting 2 1.1
2020-Jan-24 22:12 175 1 gusting 4 1.1
2020-Jan-24 22:02 203 1 gusting 3 1.1
2020-Jan-24 21:53 243 3 gusting 9 1.110.1
2020-Jan-24 21:43 264 2 gusting 9 1.110.7
2020-Jan-24 21:34 090 1 gusting 3 1.111.0
2020-Jan-24 21:22 231 1 gusting 4 1.110.5
2020-Jan-24 21:12 291 2 gusting 6 1.110.5
2020-Jan-24 21:02 355 1 gusting 3 1.110.5
2020-Jan-24 20:53 164 1 gusting 7 1.110.7
2020-Jan-24 20:43 1.111.1
2020-Jan-24 20:35 342 1 gusting 6 1.110.9
2020-Jan-24 20:26 237 2 gusting 5 1.111.0
2020-Jan-24 20:15 225 1 gusting 9 1.111.2
2020-Jan-24 20:02 288 1 gusting 8 1.111.2
2020-Jan-24 19:53 204 2 gusting 6 1.110.7
2020-Jan-24 19:43 178 2 gusting 10 1.110.6
2020-Jan-24 19:32 323 2 gusting 5 1.110.4
2020-Jan-24 19:22 135 1 gusting 7 1.110.3
2020-Jan-24 19:14 273 3 gusting 10 1.110.3
2020-Jan-24 19:02 246 2 gusting 5 1.110.1
2020-Jan-24 18:53 173 1 gusting 5 1.110.0
2020-Jan-24 18:45 229 2 gusting 5 1.1 9.8
2020-Jan-24 18:32 271 1 gusting 6 1.1 9.9
2020-Jan-24 18:23 186 2 gusting 12 1.1 9.9
2020-Jan-24 18:13 231 7 gusting 12 1.110.1
2020-Jan-24 18:02 199 4 gusting 10 1.110.1
2020-Jan-24 17:53 234 2 gusting 8 1.1 9.9
2020-Jan-24 17:44 032 2 gusting 7 1.1
2020-Jan-24 17:35 031 3 gusting 4 1.1
2020-Jan-24 17:22 064 1 gusting 5 1.1
2020-Jan-24 17:13 087 2 gusting 6 1.1
2020-Jan-24 17:04 074 2 gusting 8 1.1
2020-Jan-24 16:56 055 3 gusting 6 1.1
2020-Jan-24 16:43 074 1 gusting 3 1.1
2020-Jan-24 16:32 076 1 gusting 6 1.1
2020-Jan-24 16:12 1.1
2020-Jan-24 15:54 065 2 gusting 4 1.1
2020-Jan-24 15:44 041 1 gusting 3 1.1
2020-Jan-24 15:33 039 1 gusting 2 1.1
2020-Jan-24 15:23 317 0 gusting 4 1.1
2020-Jan-24 15:15 323 1 gusting 4 1.1
2020-Jan-24 15:04 338 1 gusting 3 1.1
2020-Jan-24 14:53 217 1 gusting 3 1.1
2020-Jan-24 14:43 060 1 gusting 3 1.1
2020-Jan-24 14:34 120 1 gusting 5 1.1
2020-Jan-24 14:23 098 1 gusting 2 1.1
2020-Jan-24 14:15 105 1 gusting 3 1.1
2020-Jan-24 14:03 084 1 gusting 4 1.1
2020-Jan-24 13:52 1.1
2020-Jan-24 13:42 105 0 gusting 2 1.1
2020-Jan-24 13:25 102 1 gusting 2 1.1
2020-Jan-24 13:13 1.1
2020-Jan-24 13:03 1.1
2020-Jan-24 12:54 148 1 1.1
2020-Jan-24 12:45 1.1
2020-Jan-24 12:32 1.1
2020-Jan-24 12:23 156 1 gusting 1 1.1
2020-Jan-24 12:13 142 1 gusting 7 1.1
2020-Jan-24 12:03 195 1 gusting 10 1.1
2020-Jan-24 11:55 1.1
2020-Jan-24 11:42 1.1
2020-Jan-24 11:33 162 1 gusting 2 1.1
2020-Jan-24 11:24 115 1 1.1
2020-Jan-24 11:15 114 1 gusting 2 1.1
2020-Jan-24 11:04 1.1
2020-Jan-24 10:56 1.1
2020-Jan-24 10:43 1.1
2020-Jan-24 10:34 1.1
2020-Jan-24 10:24 1.1
2020-Jan-24 10:14 1.1
2020-Jan-24 10:02 1.1
2020-Jan-24 09:56 070 1 gusting 1 1.1
2020-Jan-24 09:44 162 1 1.1
2020-Jan-24 09:34 1.1
2020-Jan-24 09:23 1.1
2020-Jan-24 09:12 094 1 gusting 1 1.1
2020-Jan-24 09:03 1.1
2020-Jan-24 08:54 1.1
2020-Jan-24 08:45 1.1
2020-Jan-24 08:34 057 2 gusting 10 1.1
2020-Jan-24 08:22 057 4 gusting 7 1.1
2020-Jan-24 08:12 063 2 gusting 6 1.1
2020-Jan-24 08:03 064 2 gusting 8 1.1
2020-Jan-24 07:55 060 2 gusting 7 1.1
2020-Jan-24 07:43 049 3 gusting 11 1.1
2020-Jan-24 07:33 088 3 gusting 10 1.1
2020-Jan-24 07:24 071 3 gusting 9 1.1
2020-Jan-24 07:13 063 3 gusting 8 1.111.2
2020-Jan-24 07:05 053 3 gusting 12 1.1
2020-Jan-24 06:53 088 4 gusting 11 1.1
2020-Jan-24 06:44 069 2 gusting 4 1.1
2020-Jan-24 06:35 016 1 gusting 4 1.1
2020-Jan-24 06:25 046 3 gusting 12 1.1
2020-Jan-24 06:12 025 1 gusting 8 1.1
2020-Jan-24 05:52 059 1 gusting 5 1.1
2020-Jan-24 05:43 043 3 gusting 7 1.1
2020-Jan-24 05:35 124 3 gusting 7 1.1
2020-Jan-24 05:22 1.1
2020-Jan-24 05:12 1.1
2020-Jan-24 05:03 221 1 1.1
2020-Jan-24 04:55 1.1
2020-Jan-24 04:43 048 1 gusting 2 1.1
2020-Jan-24 04:35 071 1 gusting 4 1.1
2020-Jan-24 04:23 044 2 gusting 4 1.1
2020-Jan-24 04:13 061 1 gusting 4 1.1
2020-Jan-24 04:04 063 2 gusting 7 1.1
2020-Jan-24 03:55 069 2 gusting 6 1.1
2020-Jan-24 03:42 022 2 gusting 6 1.1
2020-Jan-24 03:35 066 1 gusting 8 1.1
2020-Jan-24 03:23 087 4 gusting 14 1.111.4
2020-Jan-24 03:13 041 2 gusting 8 1.111.4
2020-Jan-24 03:05 027 2 gusting 6 1.111.4
2020-Jan-24 02:54 074 3 gusting 9 1.111.3
2020-Jan-24 02:44 092 2 gusting 5 1.1
2020-Jan-24 02:33 041 2 gusting 10 1.111.4
2020-Jan-24 02:23 056 2 gusting 8 1.111.4
2020-Jan-24 02:14 028 3 gusting 8 1.1
2020-Jan-24 02:04 312 1 gusting 4 1.111.5
2020-Jan-24 01:54 080 2 gusting 5 1.1
2020-Jan-24 01:43 045 2 gusting 10 1.1
2020-Jan-24 01:33 077 3 gusting 8 1.1
2020-Jan-24 01:23 064 4 gusting 8 1.1
2020-Jan-24 01:13 299 1 gusting 19 1.1
2020-Jan-24 01:05 067 8 gusting 16 1.1
2020-Jan-24 00:52 065 8 gusting 15 1.1
2020-Jan-24 00:46 049 3 gusting 10 1.1
2020-Jan-24 00:34 082 2 gusting 4 1.1
2020-Jan-24 00:23 282 1 gusting 3 1.1
2020-Jan-24 00:13 288 1 gusting 8 1.111.8
2020-Jan-24 00:03 063 3 gusting 10 1.111.7
2020-Jan-23 23:54 058 2 gusting 12 1.111.7
2020-Jan-23 23:43 097 4 gusting 11 1.111.7
2020-Jan-23 23:35 088 4 gusting 10 1.111.8
2020-Jan-23 23:23 082 4 gusting 10 1.111.7
2020-Jan-23 23:12 037 2 gusting 9 1.1
2020-Jan-23 22:52 036 3 gusting 7 1.1
2020-Jan-23 22:42 043 2 gusting 10 1.111.8
2020-Jan-23 22:33 093 3 gusting 7 1.111.7
2020-Jan-23 22:25 095 1 gusting 7 1.1
2020-Jan-23 22:13 063 1 gusting 6 1.1
2020-Jan-23 22:05 058 2 gusting 8 1.1
2020-Jan-23 21:53 069 3 gusting 10 1.1
2020-Jan-23 21:43 063 4 gusting 10 1.1
2020-Jan-23 21:32 049 3 gusting 8 1.1
2020-Jan-23 21:25 086 3 gusting 7 1.1
2020-Jan-23 21:13 057 3 gusting 10 1.111.8
2020-Jan-23 21:03 054 2 gusting 10 1.1
2020-Jan-23 20:53 090 4 gusting 11 1.111.7
2020-Jan-23 20:43 070 4 gusting 11 1.111.8
2020-Jan-23 20:33 047 1 gusting 8 1.1
2020-Jan-23 20:23 123 1 gusting 7 1.1
2020-Jan-23 20:16 1.1
2020-Jan-23 20:02 087 3 gusting 11 1.1
2020-Jan-23 19:56 078 4 gusting 11 1.1
2020-Jan-23 19:45 059 2 gusting 7 1.1
2020-Jan-23 19:32 067 5 gusting 10 1.111.4
2020-Jan-23 19:24 069 2 gusting 6 1.1
2020-Jan-23 19:15 015 2 gusting 11 1.1
2020-Jan-23 19:04 289 2 gusting 7 1.1
2020-Jan-23 18:53 064 2 gusting 6 1.1
2020-Jan-23 18:43 047 2 gusting 11 1.1
2020-Jan-23 18:34 070 3 gusting 8 1.1
2020-Jan-23 18:24 063 2 gusting 12 1.1
2020-Jan-23 18:14 063 3 gusting 9 1.1
2020-Jan-23 18:04 077 3 gusting 9 1.1
2020-Jan-23 17:53 044 2 gusting 9 1.1
2020-Jan-23 17:43 083 2 gusting 10 1.1
2020-Jan-23 17:32 085 4 gusting 15 1.1
2020-Jan-23 17:12 065 5 gusting 13 1.1
2020-Jan-23 16:53 050 5 gusting 17 1.1
2020-Jan-23 16:45 083 8 gusting 14 1.1
2020-Jan-23 16:34 060 3 gusting 8 1.1
2020-Jan-23 16:23 059 3 gusting 9 1.1
2020-Jan-23 16:15 038 2 gusting 4 1.1
2020-Jan-23 16:02 071 1 gusting 4 1.1
2020-Jan-23 15:52 224 1 gusting 8 1.1
2020-Jan-23 15:42 022 2 gusting 8 1.1
2020-Jan-23 15:34 034 1 gusting 8 1.1
2020-Jan-23 15:23 150 3 gusting 12 1.110.7
2020-Jan-23 15:14 109 2 gusting 9 1.1
2020-Jan-23 15:05 273 2 gusting 9 1.1
2020-Jan-23 14:52 083 5 gusting 15 1.1
2020-Jan-23 14:34 070 3 gusting 12 1.110.7
2020-Jan-23 14:23 107 4 gusting 16 1.110.7
2020-Jan-23 14:12 055 5 gusting 12 1.1
2020-Jan-23 13:52 080 5 gusting 13 1.110.7
2020-Jan-23 13:42 065 4 gusting 10 1.110.7
2020-Jan-23 13:23 086 3 gusting 9 1.110.6
2020-Jan-23 13:15 043 4 gusting 12 1.110.6
2020-Jan-23 13:03 072 4 gusting 9 1.110.6